Retour au catalogue

FLOCK 4G 11

ActifScienceSSO
NORAD 62629·PAYLOAD·🇺🇸 United States

Lancé Jan 14, 2025 depuis Vandenberg Space Force Base

Loading…

Prochains Passages (prochaines 24 heures)

TLE

FraisSource: CelesTrak SupGP

Époque: Sep 14, 2026, 12:45 UTC

1 62629C 25009W   26257.53136574  .00015796  00000+0  52861-3 0  2576
2 62629  97.3872 338.5141 0002823  36.9898 131.1677 15.31010698    17

Suivez FLOCK 4G 11 en temps réel avec AllMySat

Download on the App Store